Résultats de la compétition "CO VTT Orschwihr" du 29-05-2010 organisée par le club 6806
     
  Télécharger le fichier CSV.  
     
     

 Circuit "A"

Licence Nom Prénom Temps CN
précédent
Score sur
la course
Différence
18531CAHUZACPhilippe1:48:3651444904-240
11828BARTHELEMYMatthieu1:48:4552864898-388
817GARDEYoann1:52:5549684717-251
16260SCHNEBELENJulien2:06:5737774195+418
12830REICHYann2:10:31N/A4081N/A
19367LONCHAMPTLoïc2:11:1540374058+21
19676ROBERTLudovic2:14:0403973N/A
4013CHANDEZONJ-Luc2:21:2327843767+983
1911MEYERKirian2:38:0232273370+143
19024DALIBARDNicolas2:59:2930132967-46

  Indice de confiance du circuit (moyenne des différences entre CN et score sur la course des 3 à 10 premiers) : 467




 Circuit "B"

Licence Nom Prénom Temps CN
précédent
Score sur
la course
Différence
1186JANANDPatrick1:40:0836583913+255
6332POIRETTEJoel1:41:5642533844-409
2425BAZAUDValerie1:47:3930743640+566
6599VERDENALBenoit1:49:1537973587-210
5631BETTINGERJ-Michel1:51:4820103505+1495
736POURREAlain1:52:4037393478-261
20772BAJTOSOVAHana1:55:3038723392-480
9365BARLETGaelle1:56:3737043360-344
7004PHILIPPERenaud1:58:07N/A3317N/A
15917KAMMERERMadeleine1:59:3734733276-197
22846DOTTPascal2:08:05N/A3059N/A
12828REICHAlain2:19:15N/A2814N/A
7979CHRISTSarah2:19:2829222809-113
10428PHILIPPEEudes2:20:10N/A2795N/A
312JOLYThierry2:32:44N/A2565N/A
17029BONNINMathilde2:47:3026012339-262
6901FOUCAULTHerve3:08:56N/A2074N/A
10903RAVENELManon3:25:0123681911-457
23147DIASLuisa3:41:02N/A1773N/A
23148NIEDERHOFFERClaude3:43:39N/A1752N/A
10901RAVENELPhilippeN/A28710-2871
6719VILLEROTAlainN/AN/A0N/A
16545BARBELINFrancisN/A38110-3811

  Indice de confiance du circuit (moyenne des différences entre CN et score sur la course des 3 à 10 premiers) : 456




 Circuit "C"

Licence Nom Prénom Temps CN
précédent
Score sur
la course
Différence
20279BEILLCédric1:03:4145684901+333
2321DENAIXMichel1:20:4842403863-377
10998RENAUDBernard1:25:44N/A3640N/A
1398HERMETAndre1:27:3032933567+274
19028SCHMIDT-MORGENROTHJacques1:27:5130253553+528
19743TARDYPatrick1:35:09N/A3280N/A
1884DUBOCMichel1:36:2703236N/A
12557REUTChristian1:39:3330083135+127
11875FRANCOISGerald1:41:45N/A3067N/A
14768GRIBOSJ-Francois1:45:3630132956-57
1710CERINIJ-Michel1:45:4127472953+206
5464DENAIXMaylis1:49:3030182850-168
1506AUBRYDenis1:54:2329322729-203
6753HUEBERNicole1:54:3631922723-469
9363BARLETJ-Pierre1:55:1926552707+52
9077DALLA-COSTAChristia2:01:2624802570+90
302BAGUEREYBaptiste2:04:57N/A2498N/A
23423JUNCKERGuillaume2:09:19N/A2414N/A
10904RAVENELFanny2:20:3424772220-257
10902RAVENELVeronique2:24:5321802154-26
14223FISCHERGuy2:27:3220472116+69
320BAGUEREYGillesN/AN/A0N/A
10146ETIENNEDominiqueN/A20150-2015

  Indice de confiance du circuit (moyenne des différences entre CN et score sur la course des 3 à 10 premiers) : 154




 Circuit "D"

Licence Nom Prénom Temps CN
précédent
Score sur
la course
Différence
1509AUBRYMaurice0:38:2536483312-336
19017COURTOISYoann0:38:5831853265+80
22070HELIERRobin0:42:0223613027+666
3312CORDIERJacques0:44:0827162883+167
1583TAILLANDIERGuy0:44:2535032864-639
7711DENAIXLou0:46:2826472738+91
19270PASQUAPierre0:47:2626652682+17
2530LOCUSSERobert0:47:47N/A2662N/A
21435DEFIXAnne Claire0:49:3019432570+627
3651VAGNERChristine0:49:4028282561-267
4317MASSONMichel0:49:4823542555+201
740RUAUDAlain0:50:1826642529-135
1487MARCHESINSylvie0:54:0127852355-430
1916RUHLMANNJ-Pierre0:54:33N/A2332N/A
3356CHARIAUMichel0:59:1722802146-134
13688FRANCOISAline1:08:08N/A1867N/A
3108GANZITTIAlexandre1:13:2519081733-175
13875HOTHANHChristine1:20:54N/A1573N/A
5533THIEBAULTJ-Philippe1:21:39N/A1558N/A
15858CASASSASAntoine1:24:06N/A1513N/A
12829REICHM-Louise1:33:25N/A1362N/A
16129THIEBAUTEvelyne1:39:3118061278-528
19588FRIEDRICHNathanN/A25010-2501

  Indice de confiance du circuit (moyenne des différences entre CN et score sur la course des 3 à 10 premiers) : 241




 Circuit "E"

Licence Nom Prénom Temps CN
précédent
Score sur
la course
Différence
22381SCHALLERStéphane0:25:4318572453+596
13477DIETSCHJoel0:28:0615232245+722
16648JANANDPierre-Louis0:35:1617781789+11
2401DEVILLENelly0:38:0726011655-946
19413HANAUERSébastien0:41:04N/A1536N/A
2557VOGTChristiane0:45:4915511377-174
7182BERGERM-Jose0:48:42N/A1295N/A
13692HAURYEvelyne0:49:03N/A1286N/A
19894DEFIXJulia0:49:07N/A1284N/A

  Indice de confiance du circuit (moyenne des différences entre CN et score sur la course des 3 à 10 premiers) : 612




 Circuit "F"

Licence Nom Prénom Temps CN
précédent
Score sur
la course
Différence
2379BILQUEZEric0:22:3202262N/A
14273POURREJeremi0:23:4517242147+423
20408HANAUERFlorence0:33:3312261520+294
23432DOTTAnathael0:35:25N/A1439N/A
15296GREVETClaudie0:40:34N/A1257N/A
2387SUTTEROdile0:48:33N/A1050N/A
22304ROUSSELOT -GÉRARDVirgile0:49:46N/A1024N/A

  Indice de confiance du circuit (moyenne des différences entre CN et score sur la course des 3 à 10 premiers) : 426






 Retour